Regional Weather Roundup
Issued by NWS

Home | Current Version | Previous Version | Graphics & Text | Print | Product List | Glossary On
Versions: 1 2 3 4 5 6 7 8 9 10 11 12 13 14 15 16 17 18 19 20 21 22 23 24 25 26 27
000
ASUS45 KTFX 051310
RWRMT
MONTANA REGIONAL WEATHER ROUNDUP
NATIONAL WEATHER SERVICE GREAT FALLS MT
600 AM MST MON DEC 05 2016

NOTE: "FAIR" INDICATES FEW OR NO CLOUDS BELOW 12000 FEET WITH NO
SIGNIFICANT WEATHER AND/OR OBSTRUCTIONS TO VISIBILITY.

MTZ001>007-043-051400-
WEST OF THE DIVIDE

CITY           SKY/WX    TMP DP  RH WIND       PRES   REMARKS
KALISPELL      LGT SNOW  22  20  92 CALM      29.90R FOG
MISSOULA       CLOUDY    24  13  62 NW7       29.95R WCI  16
BUTTE          CLOUDY    16  -3  43 NW20G26   29.78R WCI  -1
MULLAN PASS    MOCLDY     8   5  87 W8        29.79S WCI  -4
ANACONDA         N/A     18  -2  41 W10G20    29.84R WCI   6
DEER LODGE       N/A     19   1  45 W8        29.87R WCI   9
EUREKA           N/A     23  21  93 SE3       29.91R
HAMILTON         N/A     25   3  39 E5        29.95R
LIBBY            N/A     19  18  93 CALM      29.93R
PLAINS           N/A     23  11  60 N1        29.98
$$

MTZ008-052>055-051400-
SOUTHWEST MONTANA

CITY           SKY/WX    TMP DP  RH WIND       PRES   REMARKS
BOZEMAN        PTCLDY    20  13  74 NW6       29.80R WCI  12
DILLON         CLEAR     14   0  53 S12       29.82R WCI   0
W YELLOWSTONE  CLOUDY    10   0  61 W9        29.71R WCI  -2
ENNIS          CLOUDY    19  -2  38 W14G20    29.82S WCI   6
THREE FORKS      N/A     19 -42   5 CALM      29.82R
TWIN BRIDGES     N/A     21  -8  27 SW8       29.84R WCI  11
$$

MTZ009-010-012-014-046-048-049-054-051400-
EAST SLOPES AND CENTRAL MONTANA

CITY           SKY/WX    TMP DP  RH WIND       PRES   REMARKS
CUT BANK       CLOUDY    10   6  84 N16       29.90R WCI  -7
GREAT FALLS    CLOUDY    18  13  80 NW9       29.89R WCI   7
MALMSTROM AFB  MOCLDY    18  13  82 NW8       29.91R WCI   7
HELENA         FLURRIES  20  14  77 W8        29.87R WCI  10
AUGUSTA        LGT SNOW  15  12  90 NW6       29.85R WCI   6
BOWMANS CRNR   LGT SNOW  15  13  92 NW3       29.84R
CHOTEAU          N/A     16  14  93 N12       29.90R FOG     WCI   3
CONRAD           N/A     14  11  88 NW8       29.92R WCI   3
FAIRFIELD      FLURRIES  16  11  82 N10       29.87R WCI   3
POWER          MOCLDY    13   9  85 N13       29.87R WCI  -2
RAYNESFORD     LGT SNOW  16  12  85 NW14G23   29.86R WCI   2
ULM            LGT SNOW  18  16  93 MISG      29.90R
$$

MTZ011-013-016-021-045-047-050-051-051400-
NORTH CENTRAL MONTANA

CITY           SKY/WX    TMP DP  RH WIND       PRES   REMARKS
HAVRE          CLOUDY    15  10  80 NW21      29.90R WCI  -2
LEWISTOWN      FLURRIES  15  12  88 NW17      29.79R WCI  -1
N BAR RANCH    LGT SNOW  16  10  79 NW21G35   29.71R WCI  -2
CHINOOK          N/A     16  10  79 NW15      29.87R WCI   1
DENTON         FLURRIES  17  15  90 NW9G30    29.80R WCI   6
GEYSER         MOCLDY    16  11  81 W17G23    29.80R WCI   0
GRASS RANGE    FLURRIES  18  12  78 NW18G28   29.73R WCI   2
JUDITH GAP     FLURRIES  13  10  86 MISG      29.73R
ROY            MOCLDY    16  13  87 MISG      29.75R
STANFORD       MOCLDY    13   9  84 NW21G28   29.78R WCI  -5
WINIFRED       FLURRIES  16  12  86 MISG      29.80R
$$

MTZ017>020-022>027-061-062-051400-
NORTHEAST MONTANA

CITY           SKY/WX    TMP DP  RH WIND       PRES   REMARKS
GLASGOW        LGT SNOW  22  19  89 W20       29.72R FOG     WCI   7
JORDAN           N/A     23  17  78 NW22G29   29.72R WCI   8
SIDNEY         FLURRIES  29  26  89 NW25      29.56R WCI  14
WOLF POINT     LGT SNOW  25  19  78 NW20G30   29.66R WCI  11
PLENTYWOOD       N/A     21  19  93 NW22      29.55R VSB 1   WCI   5
POPLAR           N/A     25  18  74 NW17G26   29.64R WCI  11
SCOBEY           N/A     21  11  65 NW17      29.63R WCI   7
$$

MTZ028>42-056>058-051400-
SOUTHCENTRAL AND SOUTHEAST MONTANA

CITY           SKY/WX    TMP DP  RH WIND       PRES   REMARKS
BAKER          CLOUDY    26  20  77 NW24G35   29.59R WCI  11
BILLINGS       CLOUDY    22  12  65 NW18      29.74R WCI   7
LIVINGSTON     FLURRIES  18  12  77 NW12      29.75R WCI   5
MILES CITY     CLOUDY    26  17  68 NW22G29   29.69R WCI  12
BIG TIMBER     MOCLDY    21  14  73 W20       29.75R WCI   6
EKALAKA          N/A     26  21  81 W21       29.59R WCI  12
FORSYTH          N/A     25  18  74 W14G24    29.72R WCI  13
HARLOWTON        N/A     15   9  75 N17       29.74R WCI  -1
LAUREL           N/A     22   4  46 W15       29.77R WCI   9
$$

REGIONAL REPORTS...DAKOTAS

CITY           SKY/WX    TMP DP  RH WIND       PRES   REMARKS
WILLISTON      CLOUDY    29  25  85 W10       29.53R WCI  20
MINOT          CLOUDY    20  18  92 E7        29.51F WCI  11
DICKINSON      CLOUDY    31  27  85 W22       29.50R WCI  18
BEACH          CLOUDY    27  23  86 W21       29.61R WCI  13
CROSBY         FLURRIES  18  18 100 N3        29.56R
TIOGA          FLURRIES  27  27 100 W21       29.49S WCI  13
WATFORD CITY   CLOUDY    32  30  93 W14G23    29.54R WCI  22
BISMARCK       CLOUDY    22  19  89 SE5       29.55S
GRAND FORKS    CLOUDY    26  24  92 E6        29.70R FOG     WCI  19
FARGO          CLEAR     21  18  88 E6        29.67F WCI  13
BUFFALO SD       N/A     32  28  85 NW23      29.46S WCI  19
RAPID CITY     PTCLDY    34  28  79 NW30G39   29.49S WCI  20
$$

REGIONAL REPORTS...WYOMING/IDAHO/WASHINGTON

CITY           SKY/WX    TMP DP  RH WIND       PRES   REMARKS
GILLETTE       LGT SNOW  25  24  96 N16       29.59R FOG     WCI  12
SHERIDAN       SNOW      25  22  88 NW25G32   29.66R VSB 1/2 WCI   9
BUFFALO WY     SNOW      26  22  84 N22G29    29.58R VSB 1/2 WCI  12
CODY           LGT SNOW  20  18  92 N15G22    29.67R FOG     WCI   6
YELLOWSTONE LA   N/A      7  -2  66 W8G18     29.65R WCI  -6
IDAHO FALLS    MOCLDY    23  15  71 CALM      29.89R
SALMON         MOCLDY    18   3  53 S5        29.95R
BOISE          CLEAR     24  17  74 NW3       30.11R
SPOKANE        CLEAR     21  17  84 SW9       30.03R WCI  11
$$

REGIONAL REPORTS...ALBERTA

CITY           SKY/WX    TMP DP  RH WIND       PRES   REMARKS
EDMONTON       CLOUDY     1  -6  71 NW18      30.05R WCI -19
CALGARY        MOCLDY     3  -4  72 NW9       29.94R WCI -11
LETHBRIDGE     CLOUDY     9   3  78 N12       29.99R WCI  -6
MEDICINE HAT   MOCLDY     7   0  72 NW13      29.99R WCI  -9
WATERTON GATE    N/A      9   5  85 E13G20      N/A  WCI  -7
CARDSTON         N/A      9   5  85 N6          N/A  WCI  -1
MILK RIVER       N/A      1  -2  85 NW6         N/A  WCI -10
ONEFOUR          N/A      7   1  78 NW29G35     N/A  WCI -16
$$

REGIONAL REPORTS...SASKATCHEWAN

CITY           SKY/WX    TMP DP  RH WIND       PRES   REMARKS
SWIFT CURRENT  LGT SNOW   9   7  92 NW28G33   29.74R WCI -13
REGINA         CLOUDY    16  14  93 N20G28    29.65R WCI  -1
SASKATOON      FLURRIES  16  10  79 NW16      29.78R WCI   0
CYPRESS HILLS    N/A      0  -4  85 NW16G30     N/A  WCI -21
VAL MARIE        N/A     14  10  85 N24G33      N/A  WCI  -5
ROCKGLEN         N/A     18  16  93 NW20G30     N/A  WCI   1
ASSINIBOIA       N/A      3  -4  72 NW21G26     N/A  WCI -18
$$




USA.gov is the U.S. government's official web portal to all federal, state and local government web resources and services.